Time,TemperatureF,DewpointF,PressureIn,WindDirection,WindDirectionDegrees,WindSpeedMPH,WindSpeedGustMPH,Humidity,HourlyPrecipIn,Conditions,Clouds,dailyrainin,SoftwareType,DateUTC
2013-09-03 00:04:00,51.8,42.7,30.35,SW,220,7.6,8.7,71,0.00,,---,0.00,VWS V14.01,2013-09-03 06:04:00,
2013-09-03 00:10:00,51.6,42.9,30.35,SW,217,6.3,8.1,72,0.00,,---,0.00,VWS V14.01,2013-09-03 06:10:00,
2013-09-03 00:16:00,51.4,43.1,30.35,SW,218,6.3,8.1,73,0.00,,---,0.00,VWS V14.01,2013-09-03 06:16:00,
2013-09-03 00:22:00,51.3,42.9,30.35,SSW,213,7.6,8.1,73,0.00,,---,0.00,VWS V14.01,2013-09-03 06:22:00,
2013-09-03 00:28:00,51.3,42.9,30.35,South,191,5.8,5.8,73,0.00,,---,0.00,VWS V14.01,2013-09-03 06:28:00,
2013-09-03 00:33:00,51.1,42.7,30.35,SSW,209,5.8,6.3,73,0.00,,---,0.00,VWS V14.01,2013-09-03 06:33:00,
2013-09-03 00:39:00,51.1,42.7,30.35,SSW,200,8.1,8.1,73,0.00,,---,0.00,VWS V14.01,2013-09-03 06:39:00,
2013-09-03 00:44:00,50.9,42.9,30.35,SSW,209,5.4,7.6,74,0.00,,---,0.00,VWS V14.01,2013-09-03 06:44:00,
2013-09-03 00:50:00,50.7,42.8,30.35,SSW,210,5.8,7.6,74,0.00,,---,0.00,VWS V14.01,2013-09-03 06:50:00,
2013-09-03 00:56:00,50.7,42.8,30.35,SSW,197,3.6,5.8,74,0.00,,---,0.00,VWS V14.01,2013-09-03 06:56:00,
2013-09-03 01:01:00,50.5,42.6,30.35,SSW,208,5.8,6.7,74,0.00,,---,0.00,VWS V14.01,2013-09-03 07:01:00,
2013-09-03 01:07:00,50.5,42.6,30.35,SSW,211,5.4,6.3,74,0.00,,---,0.00,VWS V14.01,2013-09-03 07:07:00,
2013-09-03 01:12:00,50.5,42.6,30.35,SSW,213,6.3,7.6,74,0.00,,---,0.00,VWS V14.01,2013-09-03 07:12:00,
2013-09-03 01:17:00,50.4,42.4,30.35,SSW,194,4.0,5.8,74,0.00,,---,0.00,VWS V14.01,2013-09-03 07:17:00,
2013-09-03 01:22:00,50.4,42.4,30.35,SSW,210,5.4,8.1,74,0.00,,---,0.00,VWS V14.01,2013-09-03 07:22:00,
2013-09-03 01:28:00,50.2,42.2,30.35,SSW,206,2.7,8.3,74,0.00,,---,0.00,VWS V14.01,2013-09-03 07:28:00,
2013-09-03 01:33:00,50.0,42.0,30.35,SSW,192,5.8,7.6,74,0.00,,---,0.00,VWS V14.01,2013-09-03 07:33:00,
2013-09-03 01:38:00,50.0,42.0,30.35,South,190,5.8,7.6,74,0.00,,---,0.00,VWS V14.01,2013-09-03 07:38:00,
2013-09-03 01:43:00,50.0,42.4,30.35,SSW,197,4.9,6.3,75,0.00,,---,0.00,VWS V14.01,2013-09-03 07:43:00,
2013-09-03 01:48:00,49.8,42.2,30.35,SSW,212,4.9,7.2,75,0.00,,---,0.00,VWS V14.01,2013-09-03 07:48:00,
2013-09-03 01:53:00,49.8,42.2,30.35,SW,223,4.5,5.8,75,0.00,,---,0.00,VWS V14.01,2013-09-03 07:53:00,
2013-09-03 01:59:00,49.6,42.0,30.35,SSW,204,3.1,6.3,75,0.00,,---,0.00,VWS V14.01,2013-09-03 07:59:00,
2013-09-03 02:04:00,49.6,42.0,30.35,SSW,210,4.0,5.8,75,0.00,,---,0.00,VWS V14.01,2013-09-03 08:04:00,
2013-09-03 02:10:00,49.6,42.0,30.35,SSW,211,7.2,8.7,75,0.00,,---,0.00,VWS V14.01,2013-09-03 08:10:00,
2013-09-03 02:15:00,49.5,41.9,30.35,SSW,211,4.9,9.6,75,0.00,,---,0.00,VWS V14.01,2013-09-03 08:15:00,
2013-09-03 02:21:00,49.5,41.9,30.35,SSW,208,8.7,8.7,75,0.00,,---,0.00,VWS V14.01,2013-09-03 08:21:00,
2013-09-03 02:27:00,49.3,41.7,30.35,SW,222,6.7,8.1,75,0.00,,---,0.00,VWS V14.01,2013-09-03 08:27:00,
2013-09-03 02:32:00,49.3,41.7,30.35,SW,223,5.4,7.6,75,0.00,,---,0.00,VWS V14.01,2013-09-03 08:32:00,
2013-09-03 02:38:00,49.1,41.9,30.35,South,181,8.1,8.1,76,0.00,,---,0.00,VWS V14.01,2013-09-03 08:38:00,
2013-09-03 02:43:00,49.1,41.9,30.35,South,182,5.8,6.3,76,0.00,,---,0.00,VWS V14.01,2013-09-03 08:43:00,
2013-09-03 02:49:00,49.1,41.9,30.35,South,182,5.4,7.6,76,0.00,,---,0.00,VWS V14.01,2013-09-03 08:49:00,
2013-09-03 02:55:00,49.1,41.9,30.35,SSW,203,4.9,7.6,76,0.00,,---,0.00,VWS V14.01,2013-09-03 08:55:00,
2013-09-03 03:00:00,49.1,41.9,30.35,SW,217,5.8,8.1,76,0.00,,---,0.00,VWS V14.01,2013-09-03 09:00:00,
2013-09-03 03:06:00,48.9,41.7,30.35,SW,219,6.3,7.6,76,0.00,,---,0.00,VWS V14.01,2013-09-03 09:06:00,
2013-09-03 03:11:00,48.9,41.7,30.35,SSW,207,4.9,6.7,76,0.00,,---,0.00,VWS V14.01,2013-09-03 09:11:00,
2013-09-03 03:16:00,48.7,41.5,30.35,SSW,210,4.9,7.2,76,0.00,,---,0.00,VWS V14.01,2013-09-03 09:16:00,
2013-09-03 03:21:00,48.7,41.5,30.35,SSW,198,5.8,7.6,76,0.00,,---,0.00,VWS V14.01,2013-09-03 09:21:00,
2013-09-03 03:27:00,48.6,41.3,30.35,SSW,193,5.8,8.3,76,0.00,,---,0.00,VWS V14.01,2013-09-03 09:27:00,
2013-09-03 03:33:00,48.6,41.3,30.35,SSW,199,5.4,8.7,76,0.00,,---,0.00,VWS V14.01,2013-09-03 09:33:00,
2013-09-03 03:38:00,48.4,41.2,30.35,SSW,201,8.3,8.3,76,0.00,,---,0.00,VWS V14.01,2013-09-03 09:38:00,
2013-09-03 03:44:00,48.4,41.2,30.35,SW,216,5.8,8.7,76,0.00,,---,0.00,VWS V14.01,2013-09-03 09:44:00,
2013-09-03 03:49:00,48.2,41.0,30.35,SSW,212,5.4,6.3,76,0.00,,---,0.00,VWS V14.01,2013-09-03 09:49:00,
2013-09-03 03:54:00,48.2,41.0,30.35,South,187,5.8,6.3,76,0.00,,---,0.00,VWS V14.01,2013-09-03 09:54:00,
2013-09-03 03:59:00,48.2,41.0,30.35,South,173,5.4,7.2,76,0.00,,---,0.00,VWS V14.01,2013-09-03 09:59:00,
2013-09-03 04:05:00,48.2,41.0,30.35,SSW,192,4.9,7.6,76,0.00,,---,0.00,VWS V14.01,2013-09-03 10:05:00,
2013-09-03 04:10:00,48.2,41.0,30.35,SW,221,5.8,7.6,76,0.00,,---,0.00,VWS V14.01,2013-09-03 10:10:00,
2013-09-03 04:16:00,48.2,41.0,30.35,SW,219,5.8,6.3,76,0.00,,---,0.00,VWS V14.01,2013-09-03 10:16:00,
2013-09-03 04:22:00,48.0,40.8,30.35,South,188,5.8,7.2,76,0.00,,---,0.00,VWS V14.01,2013-09-03 10:22:00,
2013-09-03 04:27:00,48.0,40.8,30.35,SSW,201,8.3,8.3,76,0.00,,---,0.00,VWS V14.01,2013-09-03 10:27:00,
2013-09-03 04:32:00,47.8,41.0,30.35,South,189,4.0,6.3,77,0.00,,---,0.00,VWS V14.01,2013-09-03 10:32:00,
2013-09-03 04:37:00,47.8,41.0,30.35,SSW,193,4.0,6.3,77,0.00,,---,0.00,VWS V14.01,2013-09-03 10:37:00,
2013-09-03 04:43:00,47.7,40.8,30.32,South,185,5.8,6.3,77,0.00,,---,0.00,VWS V14.01,2013-09-03 10:43:00,
2013-09-03 04:48:00,47.7,40.8,30.32,SSW,195,5.4,6.3,77,0.00,,---,0.00,VWS V14.01,2013-09-03 10:48:00,
2013-09-03 04:54:00,47.7,40.8,30.32,SSW,200,5.8,8.1,77,0.00,,---,0.00,VWS V14.01,2013-09-03 10:54:00,
2013-09-03 05:00:00,47.7,40.8,30.32,South,183,5.8,8.1,77,0.00,,---,0.00,VWS V14.01,2013-09-03 11:00:00,
2013-09-03 05:05:00,47.5,40.6,30.32,SSW,198,5.8,5.8,77,0.00,,---,0.00,VWS V14.01,2013-09-03 11:05:00,
2013-09-03 05:10:00,47.5,40.6,30.32,SSW,195,6.3,8.1,77,0.00,,---,0.00,VWS V14.01,2013-09-03 11:10:00,
2013-09-03 05:16:00,47.5,41.0,30.32,SSW,203,5.8,8.7,78,0.00,,---,0.00,VWS V14.01,2013-09-03 11:16:00,
2013-09-03 05:22:00,47.5,41.0,30.32,SW,224,7.2,8.1,78,0.00,,---,0.00,VWS V14.01,2013-09-03 11:22:00,
2013-09-03 05:27:00,47.5,41.0,30.35,SSW,212,8.3,8.3,78,0.00,,---,0.00,VWS V14.01,2013-09-03 11:27:00,
2013-09-03 05:33:00,47.3,40.8,30.35,SSW,199,8.1,8.1,78,0.00,,---,0.00,VWS V14.01,2013-09-03 11:33:00,
2013-09-03 05:39:00,47.3,40.8,30.35,SSW,205,6.3,10.1,78,0.00,,---,0.00,VWS V14.01,2013-09-03 11:39:00,
2013-09-03 05:44:00,47.3,40.8,30.35,SSW,210,6.3,8.3,78,0.00,,---,0.00,VWS V14.01,2013-09-03 11:44:00,
2013-09-03 05:50:00,47.3,40.8,30.35,South,190,4.0,5.4,78,0.00,,---,0.00,VWS V14.01,2013-09-03 11:50:00,
2013-09-03 05:55:00,47.3,40.8,30.35,SSW,202,5.8,8.7,78,0.00,,---,0.00,VWS V14.01,2013-09-03 11:55:00,
2013-09-03 06:01:00,47.1,40.6,30.35,SW,220,3.6,7.6,78,0.00,,---,0.00,VWS V14.01,2013-09-03 12:01:00,
2013-09-03 06:07:00,47.1,40.6,30.35,South,183,4.9,6.3,78,0.00,,---,0.00,VWS V14.01,2013-09-03 12:07:00,
2013-09-03 06:12:00,47.1,40.6,30.35,SSW,210,4.5,5.4,78,0.00,,---,0.00,VWS V14.01,2013-09-03 12:12:00,
2013-09-03 06:18:00,46.9,40.5,30.35,South,183,3.6,5.8,78,0.00,,---,0.00,VWS V14.01,2013-09-03 12:18:00,
2013-09-03 06:23:00,46.9,40.5,30.35,SSW,213,5.8,8.1,78,0.00,,---,0.00,VWS V14.01,2013-09-03 12:23:00,
2013-09-03 06:29:00,46.9,40.5,30.35,SW,215,4.0,8.3,78,0.00,,---,0.00,VWS V14.01,2013-09-03 12:29:00,
2013-09-03 06:35:00,46.9,40.5,30.35,SSW,198,3.1,6.3,78,0.00,,---,0.00,VWS V14.01,2013-09-03 12:35:00,
2013-09-03 06:40:00,46.9,40.5,30.35,SW,228,5.8,5.8,78,0.00,,---,0.00,VWS V14.01,2013-09-03 12:40:00,
2013-09-03 06:46:00,46.8,40.3,30.35,SW,214,8.1,10.1,78,0.00,,---,0.00,VWS V14.01,2013-09-03 12:46:00,
2013-09-03 06:51:00,46.8,40.6,30.35,South,190,5.4,8.1,79,0.00,,---,0.00,VWS V14.01,2013-09-03 12:51:00,
2013-09-03 06:57:00,46.8,40.6,30.35,South,189,5.4,7.6,79,0.00,,---,0.00,VWS V14.01,2013-09-03 12:57:00,
2013-09-03 07:03:00,46.8,40.6,30.35,SSW,206,3.1,5.8,79,0.00,,---,0.00,VWS V14.01,2013-09-03 13:03:00,
2013-09-03 07:08:00,46.8,40.6,30.35,South,186,6.3,6.3,79,0.00,,---,0.00,VWS V14.01,2013-09-03 13:08:00,
2013-09-03 07:14:00,46.8,40.6,30.35,SSW,194,5.8,8.1,79,0.00,,---,0.00,VWS V14.01,2013-09-03 13:14:00,
2013-09-03 07:19:00,46.8,40.6,30.35,SW,219,5.8,8.3,79,0.00,,---,0.00,VWS V14.01,2013-09-03 13:19:00,
2013-09-03 07:25:00,46.6,40.4,30.35,SW,222,8.3,8.7,79,0.00,,---,0.00,VWS V14.01,2013-09-03 13:25:00,
2013-09-03 07:31:00,46.6,40.4,30.35,SW,217,6.3,8.7,79,0.00,,---,0.00,VWS V14.01,2013-09-03 13:31:00,
2013-09-03 07:36:00,46.6,40.4,30.35,SSW,204,5.8,9.6,79,0.00,,---,0.00,VWS V14.01,2013-09-03 13:36:00,
2013-09-03 07:42:00,46.6,40.4,30.35,South,180,4.9,6.3,79,0.00,,---,0.00,VWS V14.01,2013-09-03 13:42:00,
2013-09-03 07:47:00,46.6,40.8,30.35,SSW,206,2.7,6.3,80,0.00,,---,0.00,VWS V14.01,2013-09-03 13:47:00,
2013-09-03 07:53:00,46.8,40.9,30.35,SSW,213,4.9,7.6,80,0.00,,---,0.00,VWS V14.01,2013-09-03 13:53:00,
2013-09-03 07:59:00,46.9,41.1,30.35,SSW,202,5.8,7.6,80,0.00,,---,0.00,VWS V14.01,2013-09-03 13:59:00,
2013-09-03 08:04:00,46.9,41.1,30.35,SSW,194,7.6,7.6,80,0.00,,---,0.00,VWS V14.01,2013-09-03 14:04:00,
2013-09-03 08:10:00,47.3,41.5,30.35,SSW,203,5.4,6.3,80,0.00,,---,0.00,VWS V14.01,2013-09-03 14:10:00,
2013-09-03 08:15:00,47.3,41.5,30.35,SSW,213,6.3,7.6,80,0.00,,---,0.00,VWS V14.01,2013-09-03 14:15:00,
2013-09-03 08:20:00,47.5,41.6,30.35,SSW,197,5.4,8.1,80,0.00,,---,0.00,VWS V14.01,2013-09-03 14:20:00,
2013-09-03 08:25:00,47.7,41.8,30.35,SW,214,4.9,6.3,80,0.00,,---,0.00,VWS V14.01,2013-09-03 14:25:00,
2013-09-03 08:31:00,47.8,42.3,30.35,SSW,209,4.0,8.1,81,0.00,,---,0.00,VWS V14.01,2013-09-03 14:31:00,
2013-09-03 08:36:00,48.2,42.3,30.35,SSW,209,3.6,4.9,80,0.00,,---,0.00,VWS V14.01,2013-09-03 14:36:00,
2013-09-03 08:41:00,48.4,42.5,30.35,SSW,201,3.6,5.8,80,0.00,,---,0.00,VWS V14.01,2013-09-03 14:41:00,
2013-09-03 08:46:00,48.6,42.7,30.35,South,184,3.6,4.9,80,0.00,,---,0.00,VWS V14.01,2013-09-03 14:46:00,
2013-09-03 08:51:00,48.7,42.9,30.35,South,187,3.1,5.8,80,0.00,,---,0.00,VWS V14.01,2013-09-03 14:51:00,
2013-09-03 08:56:00,48.9,43.3,30.35,South,183,3.6,6.3,81,0.00,,---,0.00,VWS V14.01,2013-09-03 14:56:00,
2013-09-03 09:02:00,49.5,43.9,30.35,South,178,5.4,8.1,81,0.00,,---,0.00,VWS V14.01,2013-09-03 15:02:00,
2013-09-03 09:08:00,50.0,44.1,30.35,South,169,6.3,8.3,80,0.00,,---,0.00,VWS V14.01,2013-09-03 15:08:00,
2013-09-03 09:14:00,50.4,44.4,30.35,SSW,205,8.3,8.3,80,0.00,,---,0.00,VWS V14.01,2013-09-03 15:14:00,
2013-09-03 09:20:00,50.7,44.5,30.35,SW,215,4.9,6.3,79,0.00,,---,0.00,VWS V14.01,2013-09-03 15:20:00,
2013-09-03 09:25:00,50.9,44.3,30.35,SSW,202,6.3,7.6,78,0.00,,---,0.00,VWS V14.01,2013-09-03 15:25:00,
2013-09-03 09:31:00,51.1,44.5,30.35,SSW,213,5.8,6.7,78,0.00,,---,0.00,VWS V14.01,2013-09-03 15:31:00,
2013-09-03 09:36:00,51.4,44.8,30.35,South,188,6.3,8.3,78,0.00,,---,0.00,VWS V14.01,2013-09-03 15:36:00,
2013-09-03 09:42:00,51.8,44.8,30.35,SSW,203,6.3,6.3,77,0.00,,---,0.00,VWS V14.01,2013-09-03 15:42:00,
2013-09-03 09:47:00,52.2,44.8,30.35,South,177,5.8,6.7,76,0.00,,---,0.00,VWS V14.01,2013-09-03 15:47:00,
2013-09-03 09:52:00,52.5,44.8,30.35,SSW,200,7.6,7.6,75,0.00,,---,0.00,VWS V14.01,2013-09-03 15:52:00,
2013-09-03 09:58:00,53.1,45.4,30.35,South,178,3.1,7.2,75,0.00,,---,0.00,VWS V14.01,2013-09-03 15:58:00,
2013-09-03 10:03:00,53.1,45.0,30.35,SSW,212,6.7,8.1,74,0.00,,---,0.00,VWS V14.01,2013-09-03 16:03:00,
2013-09-03 10:09:00,53.2,45.2,30.37,South,183,4.5,4.5,74,0.00,,---,0.00,VWS V14.01,2013-09-03 16:09:00,
2013-09-03 10:14:00,53.2,44.8,30.37,SSW,193,0.0,3.6,73,0.00,,---,0.00,VWS V14.01,2013-09-03 16:14:00,
2013-09-03 10:21:00,53.4,45.3,30.37,SSW,209,0.0,0.0,74,0.00,,---,0.00,VWS V14.01,2013-09-03 16:21:00,
2013-09-03 10:27:00,54.1,45.3,30.37,SSW,208,0.0,0.0,72,0.00,,---,0.00,VWS V14.01,2013-09-03 16:27:00,
2013-09-03 10:32:00,54.7,45.8,30.37,South,176,0.0,4.0,72,0.00,,---,0.00,VWS V14.01,2013-09-03 16:32:00,
2013-09-03 10:38:00,55.4,46.2,30.37,SE,146,0.0,0.0,71,0.00,,---,0.00,VWS V14.01,2013-09-03 16:38:00,
2013-09-03 10:43:00,55.9,46.3,30.37,SSW,196,0.0,0.0,70,0.00,,---,0.00,VWS V14.01,2013-09-03 16:43:00,
2013-09-03 10:48:00,56.5,46.5,30.37,SW,223,0.0,0.0,69,0.00,,---,0.00,VWS V14.01,2013-09-03 16:48:00,
2013-09-03 10:54:00,56.8,46.4,30.37,SW,223,0.0,0.0,68,0.00,,---,0.00,VWS V14.01,2013-09-03 16:54:00,
2013-09-03 10:59:00,57.2,46.4,30.37,SW,223,0.0,0.0,67,0.00,,---,0.00,VWS V14.01,2013-09-03 16:59:00,
2013-09-03 11:05:00,57.6,46.7,30.37,SW,223,0.0,0.0,67,0.00,,---,0.00,VWS V14.01,2013-09-03 17:05:00,
2013-09-03 11:10:00,57.9,45.8,30.37,SW,223,0.0,0.0,64,0.00,,---,0.00,VWS V14.01,2013-09-03 17:10:00,
2013-09-03 11:16:00,58.1,43.9,30.37,WSW,238,0.0,0.0,59,0.00,,---,0.00,VWS V14.01,2013-09-03 17:16:00,
2013-09-03 11:22:00,58.6,44.4,30.37,WSW,238,0.0,0.0,59,0.00,,---,0.00,VWS V14.01,2013-09-03 17:22:00,
2013-09-03 11:27:00,59.0,41.9,30.35,West,270,0.0,0.0,53,0.00,,---,0.00,VWS V14.01,2013-09-03 17:27:00,
2013-09-03 11:33:00,60.3,40.0,30.35,WNW,297,0.0,3.1,47,0.00,,---,0.00,VWS V14.01,2013-09-03 17:33:00,
2013-09-03 11:38:00,60.8,38.8,30.35,NW,324,0.0,0.0,44,0.00,,---,0.00,VWS V14.01,2013-09-03 17:38:00,
2013-09-03 11:44:00,61.2,37.3,30.35,NNW,333,0.0,4.0,41,0.00,,---,0.00,VWS V14.01,2013-09-03 17:44:00,
2013-09-03 11:50:00,61.7,39.6,30.35,NNW,333,0.0,0.0,44,0.00,,---,0.00,VWS V14.01,2013-09-03 17:50:00,
2013-09-03 11:55:00,61.9,39.8,30.35,NNW,333,0.0,0.0,44,0.00,,---,0.00,VWS V14.01,2013-09-03 17:55:00,
2013-09-03 12:01:00,62.1,39.3,30.35,NNW,333,0.0,0.0,43,0.00,,---,0.00,VWS V14.01,2013-09-03 18:01:00,
2013-09-03 12:06:00,62.4,39.0,30.35,NW,326,0.0,0.0,42,0.00,,---,0.00,VWS V14.01,2013-09-03 18:06:00,
2013-09-03 12:12:00,63.0,37.6,30.35,NW,323,0.0,0.0,39,0.00,,---,0.00,VWS V14.01,2013-09-03 18:12:00,
2013-09-03 12:18:00,63.3,37.3,30.35,North,353,0.0,0.0,38,0.00,,---,0.00,VWS V14.01,2013-09-03 18:18:00,
2013-09-03 12:23:00,63.7,37.6,30.35,East,85,0.0,0.0,38,0.00,,---,0.00,VWS V14.01,2013-09-03 18:23:00,
2013-09-03 12:29:00,64.0,36.6,30.35,ENE,69,0.0,0.0,36,0.00,,---,0.00,VWS V14.01,2013-09-03 18:29:00,
2013-09-03 12:34:00,64.2,36.7,30.35,WNW,287,0.0,0.0,36,0.00,,---,0.00,VWS V14.01,2013-09-03 18:34:00,
2013-09-03 12:39:00,64.8,36.5,30.35,NNW,333,0.0,2.7,35,0.00,,---,0.00,VWS V14.01,2013-09-03 18:39:00,
2013-09-03 12:44:00,64.9,35.2,30.35,NNW,333,0.0,0.0,33,0.00,,---,0.00,VWS V14.01,2013-09-03 18:44:00,
2013-09-03 12:50:00,65.5,34.1,30.35,West,268,4.0,6.3,31,0.00,,---,0.00,VWS V14.01,2013-09-03 18:50:00,
2013-09-03 12:55:00,66.0,33.7,30.35,NNW,336,0.0,4.9,30,0.00,,---,0.00,VWS V14.01,2013-09-03 18:55:00,
2013-09-03 13:01:00,66.7,34.3,30.35,West,270,3.1,4.9,30,0.00,,---,0.00,VWS V14.01,2013-09-03 19:01:00,
2013-09-03 13:07:00,67.3,34.8,30.35,NNW,335,3.6,5.4,30,0.00,,---,0.00,VWS V14.01,2013-09-03 19:07:00,
2013-09-03 13:12:00,67.8,32.7,30.32,WNW,301,2.2,6.7,27,0.00,,---,0.00,VWS V14.01,2013-09-03 19:12:00,
2013-09-03 13:18:00,68.2,31.0,30.32,North,353,2.2,3.6,25,0.00,,---,0.00,VWS V14.01,2013-09-03 19:18:00,
2013-09-03 13:23:00,68.2,29.0,30.35,West,275,2.2,5.8,23,0.00,,---,0.00,VWS V14.01,2013-09-03 19:23:00,
2013-09-03 13:29:00,68.4,29.1,30.35,West,270,3.6,7.6,23,0.00,,---,0.00,VWS V14.01,2013-09-03 19:29:00,
2013-09-03 13:35:00,68.7,29.5,30.35,WNW,290,5.4,7.2,23,0.00,,---,0.00,VWS V14.01,2013-09-03 19:35:00,
2013-09-03 13:41:00,69.3,32.0,30.32,NNW,328,2.7,5.8,25,0.00,,---,0.00,VWS V14.01,2013-09-03 19:41:00,
2013-09-03 13:47:00,69.8,30.4,30.32,NNW,330,0.0,3.6,23,0.00,,---,0.00,VWS V14.01,2013-09-03 19:47:00,
2013-09-03 13:53:00,70.3,30.8,30.32,WNW,289,3.1,7.6,23,0.00,,---,0.00,VWS V14.01,2013-09-03 19:53:00,
2013-09-03 13:58:00,70.5,31.0,30.32,WNW,293,3.6,6.3,23,0.00,,---,0.00,VWS V14.01,2013-09-03 19:58:00,
2013-09-03 14:04:00,70.5,31.0,30.32,West,276,3.1,5.8,23,0.00,,---,0.00,VWS V14.01,2013-09-03 20:04:00,
2013-09-03 14:10:00,70.7,32.2,30.32,WNW,287,4.0,6.3,24,0.00,,---,0.00,VWS V14.01,2013-09-03 20:10:00,
2013-09-03 14:15:00,70.7,31.1,30.32,WNW,287,2.7,2.7,23,0.00,,---,0.00,VWS V14.01,2013-09-03 20:15:00,
2013-09-03 14:21:00,70.9,31.3,30.32,WNW,294,0.0,4.0,23,0.00,,---,0.00,VWS V14.01,2013-09-03 20:21:00,
2013-09-03 14:26:00,70.9,31.3,30.32,NW,315,5.4,5.4,23,0.00,,---,0.00,VWS V14.01,2013-09-03 20:26:00,
2013-09-03 14:32:00,71.4,31.7,30.32,NW,310,2.7,6.3,23,0.00,,---,0.00,VWS V14.01,2013-09-03 20:32:00,
2013-09-03 14:38:00,71.6,30.8,30.32,NW,305,0.0,0.0,22,0.00,,---,0.00,VWS V14.01,2013-09-03 20:38:00,
2013-09-03 14:43:00,71.6,30.8,30.32,SSW,205,0.0,0.0,22,0.00,,---,0.00,VWS V14.01,2013-09-03 20:43:00,
2013-09-03 14:49:00,71.8,30.9,30.32,SSW,211,0.0,0.0,22,0.00,,---,0.00,VWS V14.01,2013-09-03 20:49:00,
2013-09-03 14:54:00,72.1,31.2,30.32,NNW,335,4.0,5.4,22,0.00,,---,0.00,VWS V14.01,2013-09-03 20:54:00,
2013-09-03 15:00:00,73.2,33.2,30.32,NW,323,4.0,4.0,23,0.00,,---,0.00,VWS V14.01,2013-09-03 21:00:00,
2013-09-03 15:06:00,73.6,33.5,30.32,NW,312,3.1,4.0,23,0.00,,---,0.00,VWS V14.01,2013-09-03 21:06:00,
2013-09-03 15:11:00,73.4,32.3,30.32,North,353,4.0,4.0,22,0.00,,---,0.00,VWS V14.01,2013-09-03 21:11:00,
2013-09-03 15:17:00,73.2,33.2,30.32,NNW,330,0.0,2.7,23,0.00,,---,0.00,VWS V14.01,2013-09-03 21:17:00,
2013-09-03 15:23:00,73.0,33.1,30.32,NNW,342,0.0,0.0,23,0.00,,---,0.00,VWS V14.01,2013-09-03 21:23:00,
2013-09-03 15:28:00,72.5,32.6,30.32,NNW,342,0.0,0.0,23,0.00,,---,0.00,VWS V14.01,2013-09-03 21:28:00,
2013-09-03 15:34:00,72.1,32.3,30.32,WSW,252,9.6,9.6,23,0.00,,---,0.00,VWS V14.01,2013-09-03 21:34:00,
2013-09-03 15:40:00,71.1,31.4,30.32,WNW,300,4.5,7.6,23,0.00,,---,0.00,VWS V14.01,2013-09-03 21:40:00,
2013-09-03 15:46:00,69.8,33.4,30.32,West,264,3.6,7.6,26,0.00,,---,0.00,VWS V14.01,2013-09-03 21:46:00,
2013-09-03 15:51:00,68.5,36.7,30.32,SSW,213,10.5,10.5,31,0.00,,---,0.00,VWS V14.01,2013-09-03 21:51:00,
2013-09-03 15:57:00,67.6,37.5,30.35,SSW,198,3.6,8.7,33,0.00,,---,0.00,VWS V14.01,2013-09-03 21:57:00,
2013-09-03 16:03:00,67.1,37.1,30.35,SW,233,5.4,5.8,33,0.00,,---,0.00,VWS V14.01,2013-09-03 22:03:00,
2013-09-03 16:09:00,66.7,36.8,30.35,SW,234,6.3,6.3,33,0.00,,---,0.00,VWS V14.01,2013-09-03 22:09:00,
2013-09-03 16:14:00,65.5,39.2,30.35,South,173,2.7,8.7,38,0.00,,---,0.00,VWS V14.01,2013-09-03 22:14:00,
2013-09-03 16:20:00,64.0,39.2,30.35,SSW,207,3.1,6.3,40,0.00,,---,0.00,VWS V14.01,2013-09-03 22:20:00,
2013-09-03 16:25:00,63.3,39.9,30.37,SSW,207,0.0,6.3,42,0.00,,---,0.00,VWS V14.01,2013-09-03 22:25:00,
2013-09-03 16:31:00,62.8,40.6,30.37,SW,222,2.2,5.8,44,0.00,,---,0.00,VWS V14.01,2013-09-03 22:31:00,
2013-09-03 16:37:00,62.2,40.7,30.37,South,187,0.0,5.4,45,0.00,,---,0.00,VWS V14.01,2013-09-03 22:37:00,
2013-09-03 16:42:00,62.1,40.5,30.37,South,191,5.8,6.3,45,0.00,,---,0.00,VWS V14.01,2013-09-03 22:42:00,
2013-09-03 16:48:00,61.7,39.6,30.37,SSE,168,4.9,7.6,44,0.00,,---,0.00,VWS V14.01,2013-09-03 22:48:00,
2013-09-03 16:53:00,61.3,39.8,30.37,South,170,2.7,5.4,45,0.00,,---,0.00,VWS V14.01,2013-09-03 22:53:00,
2013-09-03 16:58:00,61.0,39.5,30.37,South,183,7.6,8.3,45,0.00,,---,0.00,VWS V14.01,2013-09-03 22:58:00,
2013-09-03 17:03:00,60.6,40.3,30.37,NW,319,3.6,5.8,47,0.00,,---,0.00,VWS V14.01,2013-09-03 23:03:00,
2013-09-03 17:09:00,60.6,40.3,30.37,SW,235,0.0,0.0,47,0.00,,---,0.00,VWS V14.01,2013-09-03 23:09:00,
2013-09-03 17:14:00,60.3,42.6,30.37,West,273,0.0,5.8,52,0.00,,---,0.00,VWS V14.01,2013-09-03 23:14:00,
2013-09-03 17:19:00,59.7,42.1,30.37,South,174,4.0,7.6,52,0.00,,---,0.00,VWS V14.01,2013-09-03 23:19:00,
2013-09-03 17:24:00,59.2,42.1,30.37,SSW,202,0.0,3.1,53,0.00,,---,0.00,VWS V14.01,2013-09-03 23:24:00,
2013-09-03 17:30:00,59.2,42.6,30.37,South,190,0.0,0.0,54,0.00,,---,0.00,VWS V14.01,2013-09-03 23:30:00,
2013-09-03 17:35:00,59.2,42.6,30.37,SE,136,0.0,4.0,54,0.00,,---,0.00,VWS V14.01,2013-09-03 23:35:00,
2013-09-03 17:41:00,59.0,42.4,30.37,South,172,3.6,3.6,54,0.00,,---,0.00,VWS V14.01,2013-09-03 23:41:00,
2013-09-03 17:47:00,59.0,43.3,30.37,SSE,153,2.2,4.0,56,0.00,,---,0.00,VWS V14.01,2013-09-03 23:47:00,
2013-09-03 17:53:00,59.0,42.9,30.37,ESE,111,0.0,0.0,55,0.00,,---,0.00,VWS V14.01,2013-09-03 23:53:00,
2013-09-03 17:59:00,59.0,42.9,30.37,ESE,111,0.0,0.0,55,0.00,,---,0.00,VWS V14.01,2013-09-03 23:59:00,
2013-09-03 18:04:00,59.0,42.9,30.37,SSE,167,0.0,0.0,55,0.00,,---,0.00,VWS V14.01,2013-09-04 00:04:00,
2013-09-03 18:10:00,59.0,42.9,30.37,SSW,196,0.0,0.0,55,0.00,,---,0.00,VWS V14.01,2013-09-04 00:10:00,
2013-09-03 18:16:00,59.2,42.6,30.37,SSW,196,0.0,0.0,54,0.00,,---,0.00,VWS V14.01,2013-09-04 00:16:00,
2013-09-03 18:21:00,59.4,43.7,30.37,SW,215,0.0,0.0,56,0.00,,---,0.00,VWS V14.01,2013-09-04 00:21:00,
2013-09-03 18:27:00,59.4,43.7,30.37,SSW,197,0.0,0.0,56,0.00,,---,0.00,VWS V14.01,2013-09-04 00:27:00,
2013-09-03 18:33:00,59.4,43.7,30.37,SSW,211,2.2,5.4,56,0.00,,---,0.00,VWS V14.01,2013-09-04 00:33:00,
2013-09-03 18:38:00,59.7,48.0,30.35,WSW,246,4.0,4.9,65,0.00,,---,0.00,VWS V14.01,2013-09-04 00:38:00,
2013-09-03 18:44:00,59.7,47.1,30.35,SSW,195,2.2,4.9,63,0.00,,---,0.00,VWS V14.01,2013-09-04 00:44:00,
2013-09-03 18:49:00,59.7,47.1,30.35,SW,236,3.6,4.9,63,0.00,,---,0.00,VWS V14.01,2013-09-04 00:49:00,
2013-09-03 18:54:00,59.7,47.5,30.35,WSW,240,3.1,5.4,64,0.00,,---,0.00,VWS V14.01,2013-09-04 00:54:00,
2013-09-03 18:59:00,59.5,46.5,30.35,WSW,249,4.0,5.4,62,0.00,,---,0.00,VWS V14.01,2013-09-04 00:59:00,
2013-09-03 19:05:00,59.4,47.2,30.35,WSW,239,3.6,5.4,64,0.00,,---,0.00,VWS V14.01,2013-09-04 01:05:00,
2013-09-03 19:11:00,59.2,46.2,30.35,SW,220,5.8,6.3,62,0.00,,---,0.00,VWS V14.01,2013-09-04 01:11:00,
2013-09-03 19:16:00,59.2,45.3,30.35,SW,214,8.1,8.1,60,0.00,,---,0.00,VWS V14.01,2013-09-04 01:16:00,
2013-09-03 19:22:00,59.0,43.8,30.35,SW,220,2.7,5.4,57,0.00,,---,0.00,VWS V14.01,2013-09-04 01:22:00,
2013-09-03 19:27:00,59.0,42.4,30.35,SW,230,6.3,7.6,54,0.00,,---,0.00,VWS V14.01,2013-09-04 01:27:00,
2013-09-03 19:32:00,59.0,42.9,30.35,SSW,205,4.9,5.8,55,0.00,,---,0.00,VWS V14.01,2013-09-04 01:32:00,
2013-09-03 19:37:00,58.8,43.2,30.35,SW,233,3.6,5.4,56,0.00,,---,0.00,VWS V14.01,2013-09-04 01:37:00,
2013-09-03 19:42:00,58.8,45.0,30.35,SSW,207,5.8,5.8,60,0.00,,---,0.00,VWS V14.01,2013-09-04 01:42:00,
2013-09-03 19:47:00,58.5,44.2,30.35,SW,229,3.6,4.9,59,0.00,,---,0.00,VWS V14.01,2013-09-04 01:47:00,
2013-09-03 19:53:00,58.3,44.5,30.35,SSW,201,3.6,5.4,60,0.00,,---,0.00,VWS V14.01,2013-09-04 01:53:00,
2013-09-03 19:58:00,58.1,44.3,30.35,SSW,209,0.0,0.0,60,0.00,,---,0.00,VWS V14.01,2013-09-04 01:58:00,
2013-09-03 20:03:00,57.9,44.1,30.35,South,181,0.0,0.0,60,0.00,,---,0.00,VWS V14.01,2013-09-04 02:03:00,
2013-09-03 20:08:00,57.9,44.1,30.35,SSW,204,6.3,6.3,60,0.00,,---,0.00,VWS V14.01,2013-09-04 02:08:00,
2013-09-03 20:14:00,57.6,43.8,30.35,South,177,2.7,3.6,60,0.00,,---,0.00,VWS V14.01,2013-09-04 02:14:00,
2013-09-03 20:19:00,57.6,43.8,30.35,SSW,195,0.0,0.0,60,0.00,,---,0.00,VWS V14.01,2013-09-04 02:19:00,
2013-09-03 20:25:00,57.6,43.4,30.35,South,180,0.0,0.0,59,0.00,,---,0.00,VWS V14.01,2013-09-04 02:25:00,
2013-09-03 20:30:00,57.4,43.6,30.35,SW,233,3.1,5.4,60,0.00,,---,0.00,VWS V14.01,2013-09-04 02:30:00,
2013-09-03 20:36:00,57.2,43.5,30.35,South,183,4.0,4.9,60,0.00,,---,0.00,VWS V14.01,2013-09-04 02:36:00,
2013-09-03 20:41:00,56.8,43.5,30.37,South,188,2.7,5.4,61,0.00,,---,0.00,VWS V14.01,2013-09-04 02:41:00,
2013-09-03 20:47:00,56.7,43.4,30.37,South,185,0.0,2.7,61,0.00,,---,0.00,VWS V14.01,2013-09-04 02:47:00,
2013-09-03 20:53:00,56.7,43.8,30.37,South,177,0.0,0.0,62,0.00,,---,0.00,VWS V14.01,2013-09-04 02:53:00,
2013-09-03 20:58:00,56.7,43.8,30.37,SW,216,2.7,4.0,62,0.00,,---,0.00,VWS V14.01,2013-09-04 02:58:00,
2013-09-03 21:04:00,56.5,43.2,30.37,SSW,205,4.0,4.9,61,0.00,,---,0.00,VWS V14.01,2013-09-04 03:04:00,
2013-09-03 21:09:00,56.3,43.0,30.37,South,189,3.1,6.3,61,0.00,,---,0.00,VWS V14.01,2013-09-04 03:09:00,
2013-09-03 21:14:00,56.1,43.3,30.37,SW,232,2.7,4.0,62,0.00,,---,0.00,VWS V14.01,2013-09-04 03:14:00,
2013-09-03 21:19:00,55.9,43.1,30.37,SW,217,4.5,5.4,62,0.00,,---,0.00,VWS V14.01,2013-09-04 03:19:00,
2013-09-03 21:25:00,55.8,43.0,30.37,SW,217,2.7,4.5,62,0.00,,---,0.00,VWS V14.01,2013-09-04 03:25:00,
2013-09-03 21:31:00,55.4,43.0,30.37,South,170,5.4,5.4,63,0.00,,---,0.00,VWS V14.01,2013-09-04 03:31:00,
2013-09-03 21:36:00,55.2,43.3,30.37,SSW,204,3.6,6.3,64,0.00,,---,0.00,VWS V14.01,2013-09-04 03:36:00,
2013-09-03 21:42:00,55.4,42.6,30.37,SSW,197,2.2,3.1,62,0.00,,---,0.00,VWS V14.01,2013-09-04 03:42:00,
2013-09-03 21:47:00,55.4,42.2,30.37,SW,234,4.0,4.0,61,0.00,,---,0.00,VWS V14.01,2013-09-04 03:47:00,
2013-09-03 21:52:00,55.0,42.3,30.37,South,182,2.2,5.8,62,0.00,,---,0.00,VWS V14.01,2013-09-04 03:52:00,
2013-09-03 21:57:00,54.9,42.9,30.37,SSE,163,4.0,4.0,64,0.00,,---,0.00,VWS V14.01,2013-09-04 03:57:00,
2013-09-03 22:01:00,54.9,42.9,30.37,SE,141,2.7,3.1,64,0.00,,---,0.00,VWS V14.01,2013-09-04 04:01:00,
2013-09-03 22:02:00,54.9,43.3,30.37,SE,135,2.2,3.1,65,0.00,,---,0.00,VWS V14.01,2013-09-04 04:02:00,
2013-09-03 22:03:00,54.9,43.3,30.37,SSE,148,2.7,2.7,65,0.00,,---,0.00,VWS V14.01,2013-09-04 04:03:00,
2013-09-03 22:04:00,54.9,42.9,30.37,SSE,160,0.0,2.7,64,0.00,,---,0.00,VWS V14.01,2013-09-04 04:04:00,
2013-09-03 22:10:00,54.9,42.5,30.37,SW,231,0.0,0.0,63,0.00,,---,0.00,VWS V14.01,2013-09-04 04:10:00,
2013-09-03 22:15:00,54.7,42.3,30.37,SW,216,0.0,0.0,63,0.00,,---,0.00,VWS V14.01,2013-09-04 04:15:00,
2013-09-03 22:18:00,54.7,42.3,30.37,SW,216,0.0,0.0,63,0.00,,---,0.00,VWS V14.01,2013-09-04 04:18:00,
2013-09-03 22:23:00,54.5,42.2,30.37,SSW,213,0.0,0.0,63,0.00,,---,0.00,VWS V14.01,2013-09-04 04:23:00,
2013-09-03 22:28:00,54.1,41.8,30.37,SSW,198,3.6,5.8,63,0.00,,---,0.00,VWS V14.01,2013-09-04 04:28:00,
2013-09-03 22:34:00,54.0,42.1,30.37,SSW,194,4.0,4.0,64,0.00,,---,0.00,VWS V14.01,2013-09-04 04:34:00,
2013-09-03 22:39:00,53.8,41.9,30.37,SSW,198,5.8,7.6,64,0.00,,---,0.00,VWS V14.01,2013-09-04 04:39:00,
2013-09-03 22:45:00,53.4,42.0,30.37,SSW,197,4.0,6.3,65,0.00,,---,0.00,VWS V14.01,2013-09-04 04:45:00,
2013-09-03 22:50:00,53.6,41.7,30.37,SW,220,4.0,6.3,64,0.00,,---,0.00,VWS V14.01,2013-09-04 04:50:00,
2013-09-03 22:56:00,53.4,41.2,30.37,SSW,203,3.6,5.4,63,0.00,,---,0.00,VWS V14.01,2013-09-04 04:56:00,
2013-09-03 23:01:00,53.2,41.4,30.37,SW,219,3.1,3.6,64,0.00,,---,0.00,VWS V14.01,2013-09-04 05:01:00,
2013-09-03 23:07:00,53.1,41.2,30.37,SSW,211,3.6,5.4,64,0.00,,---,0.00,VWS V14.01,2013-09-04 05:07:00,
2013-09-03 23:13:00,52.9,41.0,30.37,SSW,205,3.1,5.4,64,0.00,,---,0.00,VWS V14.01,2013-09-04 05:13:00,
2013-09-03 23:18:00,52.7,41.3,30.37,SSE,166,3.6,4.9,65,0.00,,---,0.00,VWS V14.01,2013-09-04 05:18:00,
2013-09-03 23:24:00,52.7,41.3,30.37,SW,219,5.4,5.8,65,0.00,,---,0.00,VWS V14.01,2013-09-04 05:24:00,
2013-09-03 23:30:00,52.5,40.7,30.37,South,186,3.1,6.3,64,0.00,,---,0.00,VWS V14.01,2013-09-04 05:30:00,
2013-09-03 23:35:00,52.5,41.1,30.37,SW,230,4.0,7.2,65,0.00,,---,0.00,VWS V14.01,2013-09-04 05:35:00,
2013-09-03 23:41:00,52.2,40.8,30.37,SSW,200,5.8,5.8,65,0.00,,---,0.00,VWS V14.01,2013-09-04 05:41:00,
2013-09-03 23:47:00,52.0,40.6,30.37,SSW,200,4.0,6.3,65,0.00,,---,0.00,VWS V14.01,2013-09-04 05:47:00,
2013-09-03 23:52:00,51.6,40.7,30.37,SSW,212,6.7,8.1,66,0.00,,---,0.00,VWS V14.01,2013-09-04 05:52:00,
2013-09-03 23:58:00,51.6,41.0,30.37,SSW,213,3.6,6.3,67,0.00,,---,0.00,VWS V14.01,2013-09-04 05:58:00,